Location: Unspecified
(0.0000°N, 0.0000°E)
Time: 09:31:03
(UTC+00:00)

ARIANE 1 DEB - Pass Details

Date: 17 February 2026
Orbit: 1090 x 21662 km, 16.1° (Epoch: 9 December)

Event Time Altitude Azimuth Distance (km) Brightness Sun altitude
Rises 00:09:59 0° 263° (W) 16,586 ? -77.9°
Reaches altitude 10° 00:28:37 10° 259° (W) 18,481 ? -77.4°
Maximum altitude 05:09:47 83° 164° (SSE) 5,550 ? -15.7°
Drops below altitude 10° 05:26:22 10° 77° (ENE) 4,966 ? -11.6°
Sets 05:28:35 0° 77° (ENE) 5,466 ? -11.1°
